User: anonymous   Login
Location: Caltech
(34.1382°N, 118.1253°W)
Time: 04:45:48
(UTC-07:00)
Language:

Cosmos 2322 - Orbit

View from above orbital plane
View from above orbital plane
View from above satellite
View from above satellite

Ground track
Ground track

The orbit data is extracted from the following two-line orbital elements,

1 23704U 95058A   16274.22191812 -.00000190  00000-0 -75748-4 0  9996
2 23704  70.9831 228.6674 0008198 139.5194 220.6539 14.13348390 79109
Epoch (UTC): 30 September 2016 05:19:33
Eccentricity: 0.0008198
inclination: 70.9831°
perigee height: 842 km
apogee height: 854 km
right ascension of ascending node: 228.6674°
argument of perigee: 139.5194°
revolutions per day: 14.13348390
mean anomaly at epoch: 220.6539°
orbit number at epoch: 7910

The dashed part of the orbit path shows where the satellite is in the earth's shadow,  

DLR